Regional Weather Roundup
Issued by NWS

Home | Current Version | Previous Version | Text Only | Print | Product List | Glossary Off
Versions: 1 2 3 4 5 6 7 8 9 10 11 12 13 14 15 16 17 18 19 20 21 22 23 24 25 26 27 28 29 30 31 32 33 34 35 36 37 38 39 40 41 42 43 44 45 46 47 48 49 50

000
ASUS45 KCYS 191810
RWRWY

WYOMING REGIONAL WEATHER ROUNDUP
NATIONAL WEATHER SERVICE CHEYENNE WY
1200 PM MDT SUN OCT 19 2014

NOTE:  "FAIR" INDICATES FEW OR NO CLOUDS BELOW 12,000 FEET
WITH NO SIGNIFICANT WEATHER AND/OR OBSTRUCTIONS TO VISIBILITY.

WYZ001-191900-
YELLOWSTONE NATIONAL PARK

CITY           SKY/WX    TMP DP  RH WIND       PRES   REMARKS
LK YELLOWSTONE   N/A     45  33  63 VRB3      30.28S
6HR MIN TEMP:  25; 6HR MAX TEMP:  45;

W YELLOWSTONE  NOT AVBL

$$
WYZ002>013-054>058-071-098>099-191900-
NORTHERN WYOMING

CITY           SKY/WX    TMP DP  RH WIND       PRES   REMARKS
JACKSON        SUNNY     48  32  53 CALM      30.23F
CODY           SUNNY    N/A N/A N/A S10       30.10F
GREYBULL       SUNNY     60  33  36 SE3       30.10F
6HR MIN TEMP:  34; 6HR MAX TEMP:  60;

WORLAND        SUNNY     62  36  37 W3        30.10F
6HR MIN TEMP:  35; 6HR MAX TEMP:  63;

SHERIDAN       SUNNY     70  35  27 SE10      30.07F
6HR MIN TEMP:  36; 6HR MAX TEMP:  70;

BUFFALO        SUNNY     65  33  30 S12       30.13F
6HR MIN TEMP:  43; 6HR MAX TEMP:  65;

GILLETTE       SUNNY     66  37  34 CALM      30.11F
6HR MIN TEMP:  34; 6HR MAX TEMP:  66;

HULETT         FAIR      64  36  34 NW3       30.12
NEWCASTLE      FAIR      64  36  34 MISG      30.11

$$
WYZ014>020-022>026-101>103-191900-
CENTRAL WYOMING

CITY           SKY/WX    TMP DP  RH WIND       PRES   REMARKS
BIG PINEY      SUNNY     56  30  37 E3        30.24F
6HR MIN TEMP:  25; 6HR MAX TEMP:  56;

PINEDALE       CLEAR     55  28  35 S3        30.25S
DUBOIS         FAIR      55  23  28 CALM      30.22F
LANDER         SUNNY     60  32  34 N5        30.15F
6HR MIN TEMP:  42; 6HR MAX TEMP:  61;

RIVERTON       SUNNY     57  34  41 E5        30.17F
6HR MIN TEMP:  36; 6HR MAX TEMP:  58;

CASPER         SUNNY     63  31  30 SW8       30.16F
6HR MIN TEMP:  36; 6HR MAX TEMP:  63;

DOUGLAS        SUNNY     66  32  28 CALM      30.15F
6HR MIN TEMP:  36; 6HR MAX TEMP:  66;


$$
WYZ021-027>030-104>119-191900-
SOUTHERN WYOMING

CITY           SKY/WX    TMP DP  RH WIND       PRES   REMARKS
EVANSTON       MOSUNNY   57  29  34 CALM      30.23F
6HR MIN TEMP:  39; 6HR MAX TEMP:  57;

KEMMERER       CLEAR     59  30  33 SE3       30.25S
FORT BRIDGER   FAIR      55  32  41 CALM      30.26S
ROCK SPRINGS   SUNNY     56  29  35 VRB3      30.22F
6HR MIN TEMP:  38; 6HR MAX TEMP:  57;

DIXON          FAIR      61  31  31 W3        30.24S
RAWLINS        SUNNY     59  29  31 VRB6      30.23S
6HR MIN TEMP:  29; 6HR MAX TEMP:  59;

SARATOGA       FAIR      63  28  27 S3        30.24S
LARAMIE        SUNNY     61  28  28 N6        30.23S
6HR MIN TEMP:  32; 6HR MAX TEMP:  61;

CHEYENNE       SUNNY     66  28  24 N13       30.17S
6HR MIN TEMP:  47; 6HR MAX TEMP:  66;

TORRINGTON     SUNNY     67  36  31 VRB3      30.10F
6HR MIN TEMP:  36; 6HR MAX TEMP:  67;

PINE BLUFFS    FAIR      68  34  28 NE7       30.14S

$$


USA.gov is the U.S. government's official web portal to all federal, state and local government web resources and services.